| time (UTC) | temp F | wind direction | speed knots | gust knots | rain 1hr in | rain 24hr in | rain mn in | humidity % | barometer mb |
| 20260506221831 | 61 | 77 | 0.9 | 1.7 | 0.00 | 0.00 | 1.94 | 88 | 1014.2 |
| 20260506220807 | 61 | 53 | 1.7 | 2.6 | 0.00 | 0.00 | 1.84 | 89 | 1013.8 |
| 20260506215827 | 61 | 37 | 0.9 | 2.6 | 0.00 | 0.00 | 1.74 | 88 | 1013.8 |
| 20260506212806 | 63 | 120 | 1.7 | 2.6 | 0.00 | 0.00 | 1.59 | 74 | 1014.2 |
| 20260506211813 | 63 | 41 | 1.7 | 3.5 | 0.00 | 0.00 | 1.55 | 73 | 1014.2 |
| 20260506205839 | 63 | 213 | 0.9 | 2.6 | 0.00 | 0.00 | 1.47 | 74 | 1014.2 |
| 20260506203817 | 63 | 64 | 1.7 | 3.5 | 0.00 | 0.00 | 1.39 | 74 | 1014.2 |
| 20260506201841 | 63 | 182 | 1.7 | 3.5 | 0.00 | 0.00 | 1.31 | 74 | 1014.5 |
| 20260506200817 | 61 | 150 | 1.7 | 4.3 | 0.00 | 0.00 | 1.27 | 75 | 1014.8 |
| 20260506195847 | 61 | 120 | 1.7 | 3.5 | 0.00 | 0.00 | 1.23 | 76 | 1014.5 |
| 20260506194847 | 61 | 154 | 1.7 | 3.5 | 0.00 | 0.00 | 1.19 | 76 | 1014.8 |
| 20260506193841 | 60 | 142 | 1.7 | 4.3 | 0.00 | 0.00 | 1.15 | 76 | 1015.2 |
| 20260506192821 | 59 | 271 | 1.7 | 4.3 | 0.00 | 0.00 | 1.11 | 77 | 1015.2 |
| 20260506191840 | 59 | 32 | 1.7 | 4.3 | 0.00 | 0.00 | 1.07 | 78 | 1015.5 |
| 20260506190828 | 58 | 118 | 0.9 | 2.6 | 0.00 | 0.00 | 1.03 | 78 | 1015.2 |
| 20260506185842 | 58 | 60 | 1.7 | 3.5 | 0.00 | 0.00 | 9.94 | 79 | 1015.5 |
| 20260506183819 | 57 | 119 | 1.7 | 3.5 | 0.00 | 0.00 | 9.15 | 80 | 1015.9 |
| 20260506181811 | 57 | 283 | 2.6 | 5.2 | 0.00 | 0.00 | 8.35 | 81 | 1014.8 |
| 20260506180821 | 57 | 245 | 3.5 | 6.1 | 0.00 | 0.00 | 7.95 | 81 | 1014.2 |
| 20260506175831 | 57 | 124 | 1.7 | 4.3 | 0.00 | 0.00 | 7.55 | 81 | 1014.5 |
| 20260506174818 | 56 | 126 | 3.5 | 5.2 | 0.00 | 0.00 | 7.15 | 82 | 1014.5 |
| 20260506170849 | 55 | 89 | 2.6 | 3.5 | 0.00 | 0.00 | 5.55 | 86 | 1014.8 |
| 20260506165809 | 54 | 71 | 1.7 | 5.2 | 0.00 | 0.00 | 5.15 | 87 | 1014.8 |
| 20260506164821 | 54 | 59 | 1.7 | 5.2 | 0.00 | 0.00 | 4.75 | 87 | 1014.8 |
| 20260506162810 | 54 | 116 | 1.7 | 3.5 | 0.00 | 0.00 | 3.95 | 90 | 1015.2 |
| 20260506161811 | 54 | 55 | 1.7 | 4.3 | 0.00 | 0.00 | 3.55 | 90 | 1015.2 |
| 20260506160816 | 54 | 31 | 3.5 | 5.2 | 0.00 | 0.00 | 3.15 | 90 | 1015.5 |
| 20260506155828 | 54 | 104 | 2.6 | 3.5 | 0.00 | 0.00 | 2.75 | 91 | 1014.8 |
| 20260506154840 | 54 | 88 | 2.6 | 4.3 | 0.00 | 0.00 | 2.35 | 92 | 1014.5 |
| 20260506151827 | 53 | 123 | 2.6 | 4.3 | 0.00 | 0.00 | 1.14 | 94 | 1015.2 |
| 20260506150831 | 52 | 101 | 1.7 | 4.3 | 0.00 | 0.00 | 0.75 | 94 | 1015.5 |
| 20260506145830 | 52 | 155 | 2.6 | 4.3 | 0.00 | 0.00 | 0.35 | 93 | 1015.9 |
| 20260506144821 | 53 | 110 | 1.7 | 3.5 | 0.00 | 0.00 | 0.03 | 89 | 1016.5 |
| 20260506143836 | 53 | 99 | 2.6 | 3.5 | 0.00 | 0.00 | 0.00 | 86 | 1016.5 |
| 20260506141848 | 53 | 122 | 2.6 | 5.2 | 0.00 | 0.00 | 0.00 | 86 | 1014.8 |
| 20260506140816 | 54 | 118 | 2.6 | 5.2 | 0.00 | 0.00 | 0.00 | 87 | 1014.5 |
| 20260506135845 | 53 | 181 | 2.6 | 5.2 | 0.00 | 0.00 | 0.00 | 85 | 1014.5 |
| 20260506134840 | 53 | 240 | 2.6 | 7.8 | 0.00 | 0.00 | 0.00 | 85 | 1015.5 |
| 20260506132834 | 53 | 246 | 3.5 | 5.2 | 0.00 | 0.00 | 0.00 | 84 | 1014.5 |
| 20260506131806 | 54 | 92 | 2.6 | 6.1 | 0.00 | 0.00 | 0.00 | 83 | 1014.2 |
| 20260506130820 | 54 | 210 | 2.6 | 5.2 | 0.00 | 0.00 | 0.00 | 83 | 1014.2 |
| 20260506125827 | 54 | 51 | 3.5 | 6.1 | 0.00 | 0.00 | 0.00 | 82 | 1013.8 |
| 20260506124808 | 55 | 88 | 2.6 | 5.2 | 0.00 | 0.00 | 0.00 | 81 | 1013.8 |
| 20260506123809 | 55 | 182 | 3.5 | 7.0 | 0.00 | 0.00 | 0.00 | 80 | 1013.5 |
| 20260506122826 | 55 | 159 | 3.5 | 6.1 | 0.00 | 0.00 | 0.00 | 79 | 1013.5 |
| 20260506121810 | 55 | 187 | 2.6 | 4.3 | 0.00 | 0.00 | 0.00 | 78 | 1013.5 |
| 20260506120845 | 56 | 123 | 2.6 | 4.3 | 0.00 | 0.00 | 0.00 | 78 | 1013.2 |
| 20260506115848 | 56 | 93 | 2.6 | 5.2 | 0.00 | 0.00 | 0.00 | 77 | 1013.2 |
| 20260506113837 | 57 | 85 | 2.6 | 5.2 | 0.00 | 0.00 | 0.00 | 77 | 1013.2 |
| 20260506112843 | 57 | 85 | 1.7 | 3.5 | 0.00 | 0.00 | 0.00 | 77 | 1012.8 |
| 20260506111822 | 57 | 61 | 2.6 | 5.2 | 0.00 | 0.00 | 0.00 | 76 | 1012.8 |
| 20260506110819 | 57 | 30 | 3.5 | 8.7 | 0.00 | 0.00 | 0.00 | 76 | 1012.5 |
| 20260506105834 | 58 | 225 | 3.5 | 5.2 | 0.00 | 0.00 | 0.00 | 78 | 1012.1 |
| 20260506103839 | 58 | 90 | 1.7 | 3.5 | 0.00 | 0.00 | 0.00 | 77 | 1011.8 |
| 20260506102813 | 58 | 113 | 2.6 | 7.0 | 0.00 | 0.00 | 0.00 | 76 | 1011.8 |
| 20260506101827 | 58 | 98 | 2.6 | 4.3 | 0.00 | 0.00 | 0.00 | 77 | 1011.8 |
| 20260506100836 | 58 | 132 | 1.7 | 4.3 | 0.00 | 0.00 | 0.00 | 77 | 1011.5 |
| 20260506095829 | 58 | 124 | 1.7 | 4.3 | 0.00 | 0.00 | 0.00 | 78 | 1011.1 |
| 20260506094838 | 58 | 118 | 1.7 | 3.5 | 0.00 | 0.00 | 0.00 | 78 | 1011.1 |
| 20260506093838 | 58 | 145 | 2.6 | 5.2 | 0.00 | 0.00 | 0.00 | 78 | 1010.8 |
| 20260506091808 | 59 | 56 | 1.7 | 3.5 | 0.00 | 0.00 | 0.00 | 79 | 1011.1 |
| 20260506085844 | 59 | 181 | 1.7 | 3.5 | 0.00 | 0.00 | 0.00 | 79 | 1010.8 |
| 20260506084840 | 59 | 190 | 2.6 | 5.2 | 0.00 | 0.00 | 0.00 | 79 | 1011.1 |
| 20260506083814 | 59 | 219 | 1.7 | 3.5 | 0.00 | 0.00 | 0.00 | 79 | 1010.8 |
| 20260506082848 | 59 | 185 | 2.6 | 3.5 | 0.00 | 0.00 | 0.00 | 79 | 1010.8 |
| 20260506081847 | 60 | 251 | 2.6 | 4.3 | 0.00 | 0.00 | 0.00 | 79 | 1010.4 |
| 20260506080830 | 60 | 113 | 1.7 | 4.3 | 0.00 | 0.00 | 0.00 | 80 | 1010.8 |
| 20260506071807 | 61 | 128 | 1.7 | 3.5 | 0.00 | 0.00 | 0.00 | 80 | 1010.4 |
| 20260506070846 | 61 | 156 | 1.7 | 3.5 | 0.00 | 0.00 | 0.00 | 80 | 1010.1 |
| 20260506060831 | 62 | 125 | 2.6 | 4.3 | 0.00 | 0.00 | 0.00 | 79 | 1010.1 |
| 20260506050831 | 64 | 60 | 2.6 | 7.8 | 0.00 | 0.00 | 0.00 | 78 | 1010.1 |
| 20260506044817 | 64 | 156 | 2.6 | 5.2 | 0.00 | 0.00 | 0.00 | 78 | 1010.1 |
| 20260506043808 | 65 | 128 | 1.7 | 5.2 | 0.00 | 0.00 | 0.00 | 77 | 1010.1 |
| 20260506042847 | 65 | 117 | 2.6 | 6.1 | 0.00 | 0.00 | 0.00 | 77 | 1010.1 |
| 20260506041830 | 66 | 307 | 3.5 | 7.0 | 0.00 | 0.00 | 0.00 | 78 | 1009.8 |
| 20260506040826 | 67 | 180 | 3.5 | 7.0 | 0.00 | 0.00 | 0.00 | 76 | 1010.1 |
| 20260506034842 | 67 | 175 | 2.6 | 4.3 | 0.00 | 0.00 | 0.00 | 75 | 1009.8 |
| 20260506032821 | 68 | 152 | 1.7 | 4.3 | 0.00 | 0.00 | 0.00 | 73 | 1009.4 |
| 20260506031826 | 68 | 217 | 3.5 | 5.2 | 0.00 | 0.00 | 0.00 | 73 | 1009.1 |
| 20260506030831 | 68 | 180 | 2.6 | 6.1 | 0.00 | 0.00 | 0.00 | 72 | 1009.1 |
| 20260506025818 | 69 | 89 | 2.6 | 7.8 | 0.00 | 0.00 | 0.00 | 72 | 1008.4 |
| 20260506024820 | 69 | 124 | 2.6 | 4.3 | 0.00 | 0.00 | 0.00 | 71 | 1008.4 |
| 20260506021841 | 71 | 151 | 2.6 | 6.1 | 0.00 | 0.00 | 0.00 | 71 | 1008.1 |
| 20260506020843 | 71 | 277 | 2.6 | 7.0 | 0.00 | 0.00 | 0.00 | 71 | 1007.7 |
| 20260506015826 | 71 | 277 | 2.6 | 6.1 | 0.00 | 0.00 | 0.00 | 71 | 1007.4 |
| 20260506014822 | 72 | 241 | 1.7 | 3.5 | 0.00 | 0.00 | 0.00 | 70 | 1007.4 |
| 20260506013845 | 73 | 184 | 1.7 | 4.3 | 0.00 | 0.00 | 0.00 | 69 | 1007.1 |
| 20260506012804 | 73 | 84 | 2.6 | 5.2 | 0.00 | 0.00 | 0.00 | 69 | 1006.7 |
| 20260506011816 | 74 | 153 | 1.7 | 3.5 | 0.00 | 0.00 | 0.00 | 68 | 1006.7 |
| 20260506010840 | 74 | 310 | 2.6 | 5.2 | 0.00 | 0.00 | 0.00 | 67 | 1006.4 |
| 20260506005813 | 74 | 306 | 1.7 | 3.5 | 0.00 | 0.00 | 0.00 | 66 | 1006.0 |
| 20260506004809 | 75 | 120 | 1.7 | 2.6 | 0.00 | 0.00 | 0.00 | 67 | 1006.0 |
| 20260506003846 | 75 | 239 | 2.6 | 5.2 | 0.00 | 0.00 | 0.00 | 66 | 1006.0 |
| 20260506002829 | 76 | 180 | 2.6 | 4.3 | 0.00 | 0.00 | 0.00 | 65 | 1005.7 |
| 20260506001804 | 77 | 160 | 0.9 | 4.3 | 0.00 | 0.00 | 0.00 | 63 | 1006.0 |
| 20260506000804 | 77 | 97 | 0.9 | 2.6 | 0.00 | 0.00 | 0.00 | 62 | 1005.7 |
| 20260505234810 | 78 | 205 | 2.6 | 7.8 | 0.00 | 0.00 | 0.00 | 62 | 1005.7 |
| 20260505233834 | 79 | 279 | 2.6 | 6.1 | 0.00 | 0.00 | 0.00 | 61 | 1005.4 |
| 20260505232839 | 80 | 183 | 1.7 | 3.5 | 0.00 | 0.00 | 0.00 | 62 | 1005.0 |
| 20260505231815 | 81 | 213 | 2.6 | 5.2 | 0.00 | 0.00 | 0.00 | 63 | 1005.0 |
| 20260505230810 | 81 | 211 | 2.6 | 5.2 | 0.00 | 0.00 | 0.00 | 62 | 1005.0 |
| 20260505225808 | 83 | 221 | 2.6 | 5.2 | 0.00 | 0.00 | 0.00 | 61 | 1004.7 |
| 20260505224841 | 84 | 148 | 0.9 | 2.6 | 0.00 | 0.00 | 0.00 | 54 | 1004.7 |
| 20260505222819 | 86 | 308 | 2.6 | 3.5 | 0.00 | 0.00 | 0.00 | 49 | 1004.7 |